STARLINK-1152, 45096

Orbit data source: Space-Track

STARLINK-1152, 45096 is a payload satellite owned by SpaceX/Seattle (US) in LEO that was launched on Wed, 29 Jan 2020 UTC via an FALCON 9 launch vehicle from the Air Force Eastern Test Range (AFETR). Payload-class satellites include a variety of spacecraft equipped with specific instruments for various scientific and technological missions. These include communications satellites like Starlink; space stations such as the ISS; scientific satellites like the Hubble; Earth observation satellites from companies like Planet Labs, Umbra, and HawkEye 360; GPS; miniature CubeSats for education and research; and military/defense satellites.

Loading next visibility...
Identifier
45096, 2020-006BE
Orbit
LEO
Country
Flag of USUS
Related business
Manufacturer
SpaceX/Seattle
Mission
Partially operational Commercial Communications
Bus & Motor
STARLINK, Unknown motor
Mass
260 kg wet, ~248 kg dry
Launch date (UTC)
2020-01-29 (6 years ago)
Launch vehicle
FALCON 9
Launch site
Air Force Eastern Test Range (AFETR)
Object type
Payload
Rocket body
Debris
Shape & HBR
Box + 1 Pan, 10.1 m
Radar Cross Section
13.562 m², Large (>1 m²)

Expand to show TLE details & history
Last TLE update: 1 day ago

TLE from 1 day ago
0 STARLINK-1152
1 45096U 20006BE  26035.28963228  .00017381  00000-0  52537-3 0  9993
2 45096  53.0439   3.4977 0006703  78.5155 281.6599 15.34320749332452
Epoch: 2026-02-04T06:57Z
TLE epoch observation values (Epoch: 2026-02-04T06:57:04.228Z)
Latitude
-0°
Longitude
124.77174°
Altitude
462.904 km
Speed
7.637 km/s
True Right ascension
00h 13m 59s
True Declination
0° 00' 00"
Sunlit
Object was in daylight at epoch
Visualization orbit readout
Latitude
Unknown
Longitude
Unknown
Altitude
Unknown
Speed
Unknown
Apparent Right ascension
Unknown
Apparent Declination
Unknown
Sunlit
N/A
Visualization observer readout
Local Sidereal Time
08:46:52
Azimuth
Unknown
Elevation
Unknown
Doppler factor
Unknown
Orbital elements
Apogee altitude
467.8 km
Perigee altitude
458.629 km
Semi-major axis
6,841.351 km
Eccentricity
0.00067
Inclination
53.0439°
RAAN
3.4977°
Arg. of periapsis
78.5155°
True anomaly
281.58466°
Mean anomaly
281.6599°
Eccentric anomaly
281.62228°
Mean motion
3.83557 °/min
Orbital period
93.86 mins
BSTAR
0.00052537
Loading maneuver chart data...
Computing Atmospheric mass density...

Documentation

Showing up to 5 results
|